GW3504 Weather Reports


time (UTC)temp
F
wind
direction
speed
knots
gust
knots
rain 1hr
in
rain 24hr
in
rain mn
in
humidity
%
barometer
mb
20260902002522 93 0 0.0 4.3 0.00 0.00 0.00 42 1013.6
20260902002025 94 187 0.0 4.3 0.00 0.00 0.00 41 1013.8
20260902001602 94 0 0.9 3.5 0.00 0.00 0.00 40 1013.7
20260902001023 94 176 0.0 4.3 0.00 0.00 0.00 40 1013.8
20260902000523 95 148 0.9 4.3 0.00 0.00 0.00 40 1013.7
20260902000045 95 0 0.9 4.3 0.00 0.00 0.00 39 1013.7
20260901235525 95 165 0.9 7.0 0.00 0.00 0.00 38 1013.8
20260901235027 96 158 0.0 7.0 0.00 0.00 0.00 38 1013.8
20260901234541 96 158 0.9 7.0 0.00 0.00 0.00 38 1013.8
20260901234025 96 174 1.7 7.0 0.00 0.00 0.00 37 1013.9
20260901233525 96 178 1.7 4.3 0.00 0.00 0.00 37 1013.8
20260901233055 96 0 0.9 5.2 0.00 0.00 0.00 37 1013.8
20260901232527 96 155 0.9 6.1 0.00 0.00 0.00 36 1013.8
20260901232027 97 183 3.5 6.1 0.00 0.00 0.00 35 1013.9
20260901231548 97 148 1.7 7.0 0.00 0.00 0.00 35 1013.8
20260901231026 97 178 1.7 7.0 0.00 0.00 0.00 35 1013.9
20260901230526 98 169 1.7 7.0 0.00 0.00 0.00 34 1013.9
20260901230046 98 187 0.9 6.1 0.00 0.00 0.00 34 1013.8
20260901225524 98 143 1.7 6.1 0.00 0.00 0.00 34 1013.9
20260901225024 98 173 2.6 7.8 0.00 0.00 0.00 33 1013.9
20260901224549 98 156 1.7 10.4 0.00 0.00 0.00 33 1013.9
20260901224028 98 206 1.7 13.0 0.00 0.00 0.00 33 1013.9
20260901223527 98 277 4.3 13.0 0.00 0.00 0.00 33 1013.9
20260901223051 98 88 2.6 6.1 0.00 0.00 0.00 33 1013.8
20260901222525 98 163 1.7 12.2 0.00 0.00 0.00 34 1013.9
20260901222023 98 125 0.9 12.2 0.00 0.00 0.00 34 1013.9
20260901221558 99 167 1.7 8.7 0.00 0.00 0.00 34 1013.8
20260901221024 98 0 2.6 9.6 0.00 0.00 0.00 34 1013.8
20260901220528 98 250 1.7 11.3 0.00 0.00 0.00 34 1013.9
20260901220052 98 180 3.5 11.3 0.00 0.00 0.00 34 1013.8
20260901215527 99 169 2.6 13.9 0.00 0.00 0.00 33 1013.8
20260901215026 98 157 1.7 13.9 0.00 0.00 0.00 34 1013.9
20260901214551 98 155 2.6 13.0 0.00 0.00 0.00 34 1013.9
20260901214025 98 159 2.6 10.4 0.00 0.00 0.00 34 1013.9
20260901213525 98 158 1.7 15.6 0.00 0.00 0.00 34 1013.8
20260901213048 99 314 1.7 15.6 0.00 0.00 0.00 33 1014.0
20260901212526 99 175 4.3 15.6 0.00 0.00 0.00 32 1014.0
20260901212025 99 242 2.6 10.4 0.00 0.00 0.00 33 1014.0
20260901211547 99 226 3.5 9.6 0.00 0.00 0.00 32 1014.0
20260901211026 99 173 4.3 9.6 0.00 0.00 0.00 32 1014.1
20260901210527 100 196 2.6 8.7 0.00 0.00 0.00 31 1014.1
20260901210044 99 0 2.6 13.9 0.00 0.00 0.00 31 1014.2
20260901205527 99 274 3.5 13.9 0.00 0.00 0.00 31 1014.3
20260901205029 99 188 5.2 14.8 0.00 0.00 0.00 30 1014.3
20260901204549 99 51 4.3 14.8 0.00 0.00 0.00 30 1014.5
20260901204025 99 15 2.6 9.6 0.00 0.00 0.00 31 1014.5
20260901203526 100 30 2.6 10.4 0.00 0.00 0.00 32 1014.7
20260901203047 100 196 1.7 14.8 0.00 0.00 0.00 33 1014.8
20260901202525 99 173 4.3 14.8 0.00 0.00 0.00 33 1014.9
20260901202026 100 167 4.3 11.3 0.00 0.00 0.00 31 1014.9
20260901201546 99 225 2.6 12.2 0.00 0.00 0.00 31 1015.0
20260901201026 100 163 2.6 12.2 0.00 0.00 0.00 31 1015.0
20260901200524 100 169 1.7 11.3 0.00 0.00 0.00 30 1015.0
20260901200048 100 258 2.6 13.0 0.00 0.00 0.00 30 1015.0
20260901195524 99 202 2.6 13.0 0.00 0.00 0.00 30 1015.1
20260901195024 100 336 3.5 13.0 0.00 0.00 0.00 31 1015.1
20260901194550 100 205 3.5 10.4 0.00 0.00 0.00 31 1015.2
20260901194028 99 301 1.7 13.0 0.00 0.00 0.00 31 1015.2
20260901193524 99 76 4.3 13.0 0.00 0.00 0.00 31 1015.2
20260901193048 99 196 3.5 13.0 0.00 0.00 0.00 30 1015.3
20260901192525 99 105 2.6 13.0 0.00 0.00 0.00 30 1015.3
20260901192023 99 152 3.5 13.0 0.00 0.00 0.00 33 1015.4
20260901191600 99 192 2.6 13.0 0.00 0.00 0.00 34 1015.4
20260901191025 99 92 1.7 8.7 0.00 0.00 0.00 35 1015.4
20260901190528 99 176 2.6 8.7 0.00 0.00 0.00 35 1015.5
20260901190048 99 158 3.5 8.7 0.00 0.00 0.00 37 1015.6
20260901185528 99 293 1.7 9.6 0.00 0.00 0.00 37 1015.5
20260901185027 99 290 1.7 9.6 0.00 0.00 0.00 37 1015.6
20260901184547 99 178 1.7 8.7 0.00 0.00 0.00 36 1015.6
20260901184026 99 308 0.9 8.7 0.00 0.00 0.00 36 1015.6
20260901183527 98 278 3.5 11.3 0.00 0.00 0.00 36 1015.7
20260901183051 98 150 2.6 11.3 0.00 0.00 0.00 36 1015.8
20260901182524 98 165 3.5 11.3 0.00 0.00 0.00 36 1015.8
20260901182027 98 134 2.6 8.7 0.00 0.00 0.00 38 1015.9
20260901181558 97 227 0.9 8.7 0.00 0.00 0.00 38 1016.0
20260901181025 98 259 1.7 6.1 0.00 0.00 0.00 38 1016.1
20260901180524 98 301 1.7 8.7 0.00 0.00 0.00 39 1016.1
20260901180046 97 194 2.6 9.6 0.00 0.00 0.00 40 1016.2
20260901175529 96 221 1.7 10.4 0.00 0.00 0.00 40 1016.3
20260901175027 96 135 1.7 10.4 0.00 0.00 0.00 40 1016.3
20260901174548 97 286 1.7 8.7 0.00 0.00 0.00 38 1016.4
20260901174027 97 0 2.6 8.7 0.00 0.00 0.00 39 1016.4
20260901173528 96 0 1.7 7.8 0.00 0.00 0.00 40 1016.6
20260901173059 96 113 1.7 10.4 0.00 0.00 0.00 40 1016.6
20260901172525 96 275 0.9 10.4 0.00 0.00 0.00 39 1016.6
20260901172030 97 241 0.9 7.0 0.00 0.00 0.00 41 1016.7
20260901171600 96 142 0.0 10.4 0.00 0.00 0.00 40 1016.8
20260901171024 96 280 0.9 10.4 0.00 0.00 0.00 40 1016.8
20260901170527 95 314 1.7 9.6 0.00 0.00 0.00 40 1016.8
20260901170047 95 0 0.9 9.6 0.00 0.00 0.00 40 1016.8
20260901165529 95 144 1.7 7.0 0.00 0.00 0.00 43 1016.8
20260901165024 95 171 0.9 11.3 0.00 0.00 0.00 42 1016.8
20260901164546 94 0 1.7 11.3 0.00 0.00 0.00 42 1016.8
20260901164024 93 0 2.6 11.3 0.00 0.00 0.00 44 1016.8
20260901163531 93 178 3.5 9.6 0.00 0.00 0.00 43 1016.8
20260901163052 93 182 1.7 10.4 0.00 0.00 0.00 44 1016.8
20260901162526 92 341 1.7 10.4 0.00 0.00 0.00 45 1016.9
20260901162030 92 139 1.7 10.4 0.00 0.00 0.00 46 1016.9
20260901161605 92 178 2.6 10.4 0.00 0.00 0.00 46 1016.9
20260901161028 91 42 0.9 11.3 0.00 0.00 0.00 47 1017.0
20260901160531 91 155 1.7 11.3 0.00 0.00 0.00 46 1016.9
20260901160050 90 167 3.5 8.7 0.00 0.00 0.00 47 1017.0
20260901155524 90 0 1.7 10.4 0.00 0.00 0.00 48 1017.1
20260901155027 90 163 4.3 10.4 0.00 0.00 0.00 48 1017.1
20260901154555 90 183 1.7 8.7 0.00 0.00 0.00 48 1017.0
20260901154027 89 0 1.7 8.7 0.00 0.00 0.00 50 1017.1
20260901153527 89 238 0.9 10.4 0.00 0.00 0.00 51 1017.1
20260901153050 88 163 1.7 10.4 0.00 0.00 0.00 53 1017.2
20260901152524 87 169 1.7 8.7 0.00 0.00 0.00 53 1017.2
20260901152028 87 120 1.7 8.7 0.00 0.00 0.00 55 1017.1
20260901151542 86 164 1.7 7.0 0.00 0.00 0.00 54 1017.1
20260901151030 86 169 2.6 8.7 0.00 0.00 0.00 54 1017.1
20260901150527 85 0 2.6 8.7 0.00 0.00 0.00 55 1017.1
20260901150052 85 163 1.7 8.7 0.00 0.00 0.00 57 1017.0
20260901145527 84 171 1.7 7.8 0.00 0.00 0.00 56 1017.1
20260901145025 84 170 1.7 8.7 0.00 0.00 0.00 57 1017.1
20260901144550 83 173 1.7 8.7 0.00 0.00 0.00 58 1017.1
20260901144025 83 200 2.6 9.6 0.00 0.00 0.00 59 1017.0
20260901143525 83 165 2.6 9.6 0.00 0.00 0.00 59 1017.1
20260901143048 82 170 2.6 6.1 0.00 0.00 0.00 60 1017.2
20260901142524 82 140 0.9 7.8 0.00 0.00 0.00 61 1017.2
20260901142027 81 169 2.6 7.8 0.00 0.00 0.00 62 1017.2
20260901141548 81 0 0.9 6.1 0.00 0.00 0.00 62 1017.1
20260901141029 80 160 2.6 7.0 0.00 0.00 0.00 63 1017.1
20260901140524 80 140 2.6 7.0 0.00 0.00 0.00 62 1017.1
20260901140049 79 150 2.6 7.0 0.00 0.00 0.00 63 1017.2
20260901135524 79 0 1.7 5.2 0.00 0.00 0.00 64 1017.4
20260901135025 79 159 0.0 5.2 0.00 0.00 0.00 65 1017.4
20260901134548 78 199 0.9 5.2 0.00 0.00 0.00 65 1017.5
20260901134024 78 162 2.6 6.1 0.00 0.00 0.00 66 1017.4
20260901133524 78 168 0.9 6.1 0.00 0.00 0.00 66 1017.3
20260901133046 78 159 1.7 6.1 0.00 0.00 0.00 66 1017.4
20260901132525 78 153 0.9 6.1 0.00 0.00 0.00 66 1017.3
20260901132024 77 0 0.0 6.1 0.00 0.00 0.00 66 1017.2
20260901131546 77 180 2.6 6.1 0.00 0.00 0.00 66 1017.2
20260901131028 77 189 1.7 5.2 0.00 0.00 0.00 66 1017.2
20260901130527 77 164 0.9 4.3 0.00 0.00 0.00 66 1017.2
20260901130058 77 178 0.9 5.2 0.00 0.00 0.00 67 1017.1
20260901125525 77 0 0.9 5.2 0.00 0.00 0.00 66 1017.1
20260901125025 77 163 1.7 5.2 0.00 0.00 0.00 65 1017.0
20260901124547 77 166 0.9 5.2 0.00 0.00 0.00 65 1017.0
20260901124024 77 0 0.9 4.3 0.00 0.00 0.00 65 1016.8
20260901123526 77 0 0.9 4.3 0.00 0.00 0.00 65 1016.8
20260901123047 77 172 0.0 2.6 0.00 0.00 0.00 64 1016.8
20260901122526 77 0 0.0 3.5 0.00 0.00 0.00 64 1016.7
20260901122025 77 173 0.9 5.2 0.00 0.00 0.00 63 1016.7
20260901121543 77 188 0.9 5.2 0.00 0.00 0.00 63 1016.6
20260901121023 77 0 0.0 3.5 0.00 0.00 0.00 63 1016.6
20260901120523 77 0 0.0 3.5 0.00 0.00 0.00 63 1016.5
20260901120050 77 0 0.0 2.6 0.00 0.00 0.00 63 1016.4
20260901115529 77 0 0.0 2.6 0.00 0.00 0.00 63 1016.4
20260901115024 78 0 0.0 3.5 0.00 0.00 0.00 62 1016.4
20260901114609 78 0 0.0 3.5 0.00 0.00 0.00 62 1016.3
20260901114028 78 0 0.0 3.5 0.00 0.00 0.00 62 1016.3
20260901113528 78 0 0.0 3.5 0.00 0.00 0.00 61 1016.4
20260901113043 78 0 0.0 6.1 0.00 0.00 0.00 61 1016.3
20260901112525 78 0 0.9 6.1 0.00 0.00 0.00 61 1016.3
20260901112024 78 0 0.9 4.3 0.00 0.00 0.00 62 1016.3
20260901111547 78 171 0.0 3.5 0.00 0.00 0.00 61 1016.2
20260901111033 78 0 0.0 3.5 0.00 0.00 0.00 61 1016.2
20260901110526 78 0 0.0 7.0 0.00 0.00 0.00 61 1016.1
20260901110051 78 0 0.0 7.0 0.00 0.00 0.00 61 1016.2
20260901105524 78 0 0.0 3.5 0.00 0.00 0.00 60 1016.2
20260901105027 78 0 0.0 3.5 0.00 0.00 0.00 61 1016.1
20260901104546 78 0 0.0 4.3 0.00 0.00 0.00 60 1016.1
20260901104023 78 185 0.0 5.2 0.00 0.00 0.00 60 1016.1
20260901103523 78 0 0.9 5.2 0.00 0.00 0.00 60 1016.1
20260901103042 78 0 0.0 4.3 0.00 0.00 0.00 60 1016.0
20260901102525 79 0 0.9 4.3 0.00 0.00 0.00 60 1016.0
20260901102023 79 170 0.9 4.3 0.00 0.00 0.00 59 1015.9
20260901101543 79 156 0.0 4.3 0.00 0.00 0.00 59 1015.9
20260901101025 79 0 0.0 4.3 0.00 0.00 0.00 59 1015.9
20260901100531 80 0 0.9 5.2 0.00 0.00 0.00 58 1015.8
20260901100044 80 167 0.9 5.2 0.00 0.00 0.00 58 1015.8
20260901095523 80 0 0.9 5.2 0.00 0.00 0.00 57 1015.8
20260901095023 80 188 0.9 5.2 0.00 0.00 0.00 57 1015.7
20260901094544 80 0 0.0 7.8 0.00 0.00 0.00 57 1015.8
20260901094027 80 0 0.9 7.8 0.00 0.00 0.00 57 1015.8
20260901093522 80 0 1.7 7.8 0.00 0.00 0.00 57 1015.6
20260901093050 80 159 1.7 5.2 0.00 0.00 0.00 58 1015.7
20260901092523 80 194 0.0 6.1 0.00 0.00 0.00 58 1015.5
20260901092031 80 0 0.9 6.1 0.00 0.00 0.00 58 1015.4
20260901091545 80 0 0.0 6.1 0.00 0.00 0.00 58 1015.4
20260901091024 80 0 0.0 5.2 0.00 0.00 0.00 58 1015.4
20260901090526 80 0 0.0 6.1 0.00 0.00 0.00 58 1015.4
20260901090050 80 0 0.9 6.1 0.00 0.00 0.00 58 1015.4
20260901085525 79 288 0.0 4.3 0.00 0.00 0.00 59 1015.3
20260901085023 79 229 0.0 3.5 0.00 0.00 0.00 59 1015.3
20260901084548 79 0 0.0 3.5 0.00 0.00 0.00 59 1015.4
20260901084029 79 0 0.0 3.5 0.00 0.00 0.00 59 1015.4
20260901083525 79 0 0.0 2.6 0.00 0.00 0.00 59 1015.3
20260901083049 79 0 0.0 2.6 0.00 0.00 0.00 59 1015.3
20260901082526 80 0 0.0 5.2 0.00 0.00 0.00 58 1015.1
20260901082028 80 0 0.0 5.2 0.00 0.00 0.00 58 1015.1
20260901081548 80 170 0.0 3.5 0.00 0.00 0.00 57 1015.1
20260901081025 80 0 0.0 1.7 0.00 0.00 0.00 57 1015.1
20260901080523 80 0 0.0 5.2 0.00 0.00 0.00 56 1015.1
20260901080049 81 0 0.0 5.2 0.00 0.00 0.00 55 1015.2
20260901075524 81 0 0.0 3.5 0.00 0.00 0.00 55 1015.2
20260901075027 81 0 0.0 5.2 0.00 0.00 0.00 54 1015.2
20260901074548 82 0 0.0 5.2 0.00 0.00 0.00 54 1015.1
20260901074025 82 129 0.0 5.2 0.00 0.00 0.00 54 1015.2
20260901073523 82 0 0.9 6.1 0.00 0.00 0.00 53 1015.2
20260901073046 82 178 0.9 6.1 0.00 0.00 0.00 53 1015.2
20260901072528 82 136 0.0 2.6 0.00 0.00 0.00 53 1015.1
20260901072023 82 0 0.0 4.3 0.00 0.00 0.00 53 1015.2
20260901071552 82 0 0.0 4.3 0.00 0.00 0.00 53 1015.2
20260901071024 82 0 0.0 5.2 0.00 0.00 0.00 52 1015.2
20260901070525 82 142 0.0 5.2 0.00 0.00 0.00 52 1015.3
20260901065525 82 184 0.9 9.6 0.00 0.00 0.00 52 1015.2
20260901065027 83 253 0.0 7.8 0.00 0.00 0.00 52 1015.3
20260901064546 83 0 0.0 7.8 0.00 0.00 0.00 51 1015.2
20260901064025 83 0 0.0 7.8 0.00 0.00 0.00 51 1015.3
20260901063526 83 181 0.9 7.0 0.00 0.00 0.00 51 1015.3
20260901063050 83 167 1.7 11.3 0.00 0.00 0.00 51 1015.2
20260901062524 82 222 2.6 11.3 0.00 0.00 0.00 51 1015.2
20260901062028 82 184 2.6 7.8 0.00 0.00 0.00 53 1015.3
20260901061551 81 165 1.7 7.8 0.00 0.00 0.00 54 1015.3
20260901061024 81 159 1.7 5.2 0.00 0.00 0.00 54 1015.2
20260901060524 81 160 1.7 5.2 0.00 0.00 0.00 54 1015.4
20260901060044 81 173 1.7 5.2 0.00 0.00 0.00 54 1015.3
20260901055525 81 163 0.9 4.3 0.00 0.00 0.00 55 1015.4
20260901055024 81 186 0.9 4.3 0.00 0.00 0.00 54 1015.4
20260901054549 81 167 0.0 4.3 0.00 0.00 0.00 55 1015.3
20260901054025 81 0 0.0 2.6 0.00 0.00 0.00 55 1015.3
20260901053526 81 0 0.0 3.5 0.00 0.00 0.00 54 1015.3
20260901053053 81 0 0.0 3.5 0.00 0.00 0.00 54 1015.3
20260901052523 81 163 0.0 4.3 0.00 0.00 0.00 54 1015.3
20260901052024 81 0 0.0 4.3 0.00 0.00 0.00 54 1015.3
20260901051544 81 0 0.0 2.6 0.00 0.00 0.00 54 1015.3
20260901051026 81 0 0.0 3.5 0.00 0.00 0.00 54 1015.4
20260901050525 82 0 0.0 3.5 0.00 0.00 0.00 53 1015.4
20260901050053 82 171 0.0 3.5 0.00 0.00 0.00 53 1015.4
20260901045523 82 172 0.0 1.7 0.00 0.00 0.00 53 1015.4
20260901045022 82 0 0.0 1.7 0.00 0.00 0.00 52 1015.4
20260901044556 83 0 0.0 1.7 0.00 0.00 0.00 52 1015.4
20260901044025 83 0 0.0 2.6 0.00 0.00 0.00 51 1015.4
20260901043527 83 0 0.0 2.6 0.00 0.00 0.00 51 1015.4
20260901043048 83 0 0.0 2.6 0.00 0.00 0.00 51 1015.3
20260901042527 84 0 0.0 2.6 0.00 0.00 0.00 50 1015.3
20260901042023 84 0 0.0 1.7 0.00 0.00 0.00 50 1015.2
20260901041544 84 0 0.0 4.3 0.00 0.00 0.00 50 1015.2
20260901041025 84 0 0.0 4.3 0.00 0.00 0.00 49 1015.2
20260901040524 85 0 0.9 3.5 0.00 0.00 0.00 49 1015.2
20260901040053 85 0 0.0 6.1 0.00 0.00 0.00 49 1015.1
20260901035524 85 0 0.9 6.1 0.00 0.00 0.00 48 1015.1
20260901035024 85 144 1.7 6.1 0.00 0.00 0.00 48 1015.1
20260901034549 86 0 0.9 5.2 0.00 0.00 0.00 48 1015.1
20260901034028 86 153 0.9 5.2 0.00 0.00 0.00 48 1015.1
20260901033524 86 176 0.9 5.2 0.00 0.00 0.00 47 1015.0
20260901033100 86 0 0.9 7.8 0.00 0.00 0.00 47 1014.9
20260901032526 86 0 1.7 7.8 0.00 0.00 0.00 48 1014.8
20260901032027 86 157 0.9 6.1 0.00 0.00 0.00 48 1014.8
20260901031545 87 0 1.7 7.0 0.00 0.00 0.00 47 1014.8
20260901031023 87 161 0.9 7.0 0.00 0.00 0.00 47 1014.8
20260901030524 87 177 0.0 7.0 0.00 0.00 0.00 47 1014.7
20260901030101 87 165 0.9 7.0 0.00 0.00 0.00 46 1014.7
20260901025525 87 174 0.0 7.8 0.00 0.00 0.00 46 1014.8
20260901025024 87 139 1.7 7.8 0.00 0.00 0.00 47 1014.8
20260901024551 87 157 0.0 5.2 0.00 0.00 0.00 47 1014.8
20260901024025 87 0 0.0 4.3 0.00 0.00 0.00 47 1014.7
20260901023536 87 162 0.0 4.3 0.00 0.00 0.00 48 1014.6
20260901023049 87 0 0.9 4.3 0.00 0.00 0.00 48 1014.6
20260901022524 88 153 0.9 4.3 0.00 0.00 0.00 48 1014.6
20260901022025 88 164 0.9 5.2 0.00 0.00 0.00 49 1014.5
20260901021558 88 121 0.9 5.2 0.00 0.00 0.00 48 1014.4
20260901021028 88 120 1.7 5.2 0.00 0.00 0.00 49 1014.4
20260901020523 88 164 0.9 7.0 0.00 0.00 0.00 48 1014.3
20260901020045 89 152 0.9 7.8 0.00 0.00 0.00 49 1014.3
20260901015522 89 0 1.7 7.8 0.00 0.00 0.00 49 1014.3
20260901015025 89 0 0.9 3.5 0.00 0.00 0.00 49 1014.3
20260901014544 89 0 0.0 3.5 0.00 0.00 0.00 48 1014.2
20260901014024 89 0 0.0 3.5 0.00 0.00 0.00 48 1014.2
20260901013523 89 0 0.0 2.6 0.00 0.00 0.00 48 1014.1
20260901013055 90 0 0.0 2.6 0.00 0.00 0.00 47 1014.1
20260901012523 90 0 0.0 4.3 0.00 0.00 0.00 47 1014.0
20260901012023 90 0 0.0 4.3 0.00 0.00 0.00 47 1014.0
20260901011608 90 0 0.0 1.7 0.00 0.00 0.00 47 1013.9
20260901011026 91 0 0.0 4.3 0.00 0.00 0.00 47 1013.8
20260901010527 91 0 0.0 4.3 0.00 0.00 0.00 46 1013.8
20260901010046 91 0 0.0 3.5 0.00 0.00 0.00 46 1013.8
20260901005524 92 0 0.0 1.7 0.00 0.00 0.00 45 1013.8
20260901005027 92 0 0.0 2.6 0.00 0.00 0.00 45 1013.8
20260901004546 93 0 0.0 4.3 0.00 0.00 0.00 44 1013.7
20260901004026 93 142 0.0 4.3 0.00 0.00 0.00 44 1013.7
20260901003524 94 0 0.9 4.3 0.00 0.00 0.00 43 1013.7
20260901003052 94 153 0.0 2.6 0.00 0.00 0.00 43 1013.7